Milwaukee, WI

3:07 PM CDT on March 24, 2017 (GMT -0500)
Gen Mitchell International

Weather History for KMKE - June, 2013

Change the Weather History Date:

Wednesday, June 12, 2013

  Actual Average Record
Temperature  
Mean Temperature 64 °F 65 °F  
Max Temperature 71 °F 74 °F 95 °F (1956)
Min Temperature 57 °F 56 °F 42 °F (1903)
Degree Days  
Heating Degree Days 1 3  
Month to date heating degree days 67 53  
Since 1 June heating degree days 67 53  
Since 1 July heating degree days 6809 6863  
Cooling Degree Days 0 3  
Month to date cooling degree days 12 29  
Year to date cooling degree days 51 59  
Since 1 June cooling degree days 12 29  
Growing Degree Days 13 (Base 50)    
Moisture  
Dew Point 59 °F    
Average Humidity 87    
Maximum Humidity 100    
Minimum Humidity 73    
Precipitation  
Precipitation 0.73 in 0.13 in 1.18 in (1972)
Month to date precipitation 0.90 1.54  
Year to date precipitation 20.41 14.18  
Snow  
Snow 0.00 in 0.00 in 0.00 in ()
Month to date snowfall 0.0 0.0  
Since 1 June snowfall 0.0 0.0  
Since 1 July snowfall 45.0 46.9  
Snow Depth 0.00 in    
Sea Level Pressure  
Sea Level Pressure 29.76 in    
Wind  
Wind Speed 8 mph (NNE)    
Max Wind Speed 23 mph    
Max Gust Speed 29 mph    
Visibility 4 miles    
Events Rain , Thunderstorm    
T = Trace of Precipitation, MM = Missing Value Source: NWS Daily Summary

Daily Weather History Graph

Daily Weather History Graph

Search for Another Location

Airport or City:

Trip Planner

Search our weather history database for the weather conditions in past years. The results will help you decide how hot, cold, wet, or windy it might be!

Date:

Astronomy

Jun. 12, 2013 Rise Set
Actual Time 5:12 AM CDT 8:31 PM CDT
Civil Twilight 4:36 AM CDT 9:06 PM CDT
Nautical Twilight 3:51 AM CDT 9:51 PM CDT
Astronomical Twilight 2:55 AM CDT 10:48 PM CDT
Moon 8:55 AM CDT (6/12) 11:01 PM CDT (6/12)
Length of Visible Light 16h 29m
Length of Day
15h 19m
Waxing Crescent, 14% of the Moon is Illuminated
Jun 12
Waxing Crescent
Jun 16
First Quarter
Jun 23
Full
Jun 29
Last Quarter
Jul 8
New

Hourly Weather History & Observations

Time (CDT) Temp. Dew Point Humidity Pressure Visibility Wind Dir Wind Speed Gust Speed Precip Events Conditions
12:52 AM 64.9 °F 59.0 °F 81% 29.86 in 8.0 mi Calm Calm - 0.00 in Rain Light Rain
1:52 AM 66.9 °F 61.0 °F 81% 29.88 in 8.0 mi East 5.8 mph - 0.00 in Rain Light Rain
2:52 AM 69.1 °F 61.0 °F 75% 29.83 in 8.0 mi SW 6.9 mph - 0.00 in   Overcast
3:52 AM 66.0 °F 60.1 °F 81% 29.87 in 6.0 mi North 3.5 mph - 0.00 in   Haze
4:52 AM 64.9 °F 61.0 °F 87% 29.89 in 7.0 mi North 4.6 mph - 0.00 in Rain Light Rain
5:52 AM 66.9 °F 61.0 °F 81% 29.84 in 8.0 mi SSE 4.6 mph - 0.00 in   Overcast
6:52 AM 69.1 °F 62.1 °F 78% 29.82 in 10.0 mi SSW 6.9 mph - N/A   Overcast
7:52 AM 66.0 °F 61.0 °F 84% 29.93 in 6.0 mi NW 6.9 mph - 0.00 in Rain Light Rain
8:52 AM 63.0 °F 59.0 °F 87% 29.88 in 4.0 mi ENE 9.2 mph - 0.00 in   Overcast
9:52 AM 64.0 °F 59.0 °F 84% 29.87 in 5.0 mi ENE 4.6 mph - N/A   Haze
10:52 AM 61.0 °F 57.0 °F 87% 29.82 in 5.0 mi Variable 6.9 mph 16.1 mph 0.00 in   Overcast
11:52 AM 61.0 °F 57.0 °F 87% 29.81 in 4.0 mi NE 8.1 mph - N/A   Mostly Cloudy
12:52 PM 64.9 °F 59.0 °F 81% 29.82 in 5.0 mi East 4.6 mph - N/A   Haze
1:52 PM 68.0 °F 60.1 °F 76% 29.84 in 5.0 mi Calm Calm - N/A   Haze
2:52 PM 66.0 °F 57.9 °F 75% 29.82 in 6.0 mi NNE 6.9 mph - N/A   Haze
3:52 PM 63.0 °F 55.9 °F 78% 29.80 in 6.0 mi NNE 6.9 mph - N/A   Haze
4:52 PM 64.0 °F 57.9 °F 80% 29.74 in 6.0 mi NE 8.1 mph - 0.00 in   Haze
5:52 PM 57.0 °F 54.0 °F 89% 29.73 in 4.0 mi NE 10.4 mph 18.4 mph N/A   Overcast
6:19 PM 57.2 °F 55.4 °F 94% 29.69 in 2.5 mi ENE 11.5 mph - 0.02 in Rain Light Rain
6:33 PM 57.2 °F 55.4 °F 94% 29.69 in 1.5 mi NE 6.9 mph - 0.03 in Rain Rain
6:39 PM 57.2 °F 55.4 °F 94% 29.69 in 1.5 mi North 12.7 mph - 0.03 in Rain Light Rain
6:52 PM 57.9 °F 57.0 °F 97% 29.65 in 1.5 mi NE 11.5 mph 17.3 mph 0.03 in   Overcast
6:58 PM 60.8 °F 57.2 °F 88% 29.66 in 2.5 mi NE 13.8 mph 18.4 mph N/A   Overcast
7:02 PM 60.8 °F 59.0 °F 94% 29.66 in 2.5 mi ENE 12.7 mph - N/A Thunderstorm Overcast
7:14 PM 60.8 °F 60.8 °F 100% 29.68 in 3.0 mi Calm Calm - 0.01 in Rain , Thunderstorm Light Thunderstorms and Rain
7:33 PM 62.6 °F 60.8 °F 94% 29.78 in 3.0 mi NNW 17.3 mph 26.5 mph 0.01 in Rain , Thunderstorm Light Thunderstorms and Rain
7:41 PM 62.6 °F 60.8 °F 94% 29.76 in 0.5 mi North 15.0 mph 25.3 mph 0.31 in Rain , Thunderstorm Heavy Thunderstorms and Rain
7:48 PM 62.6 °F 60.8 °F 94% 29.73 in 0.5 mi NNE 12.7 mph 20.7 mph 0.46 in Rain , Thunderstorm Heavy Thunderstorms and Rain
7:52 PM 63.0 °F 61.0 °F 93% 29.72 in 0.5 mi NNE 17.3 mph 26.5 mph 0.53 in Rain , Thunderstorm Heavy Thunderstorms and Rain
8:03 PM 62.6 °F 60.8 °F 94% 29.71 in 3.0 mi NE 16.1 mph 21.9 mph 0.07 in Rain , Thunderstorm Thunderstorms and Rain
8:52 PM 61.0 °F 60.1 °F 97% 29.69 in 10.0 mi NNE 13.8 mph - 0.10 in Rain , Thunderstorm Light Thunderstorms and Rain
8:59 PM 60.8 °F 60.8 °F 100% 29.69 in 1.0 mi North 16.1 mph - 0.00 in Rain , Thunderstorm Light Thunderstorms and Rain
9:04 PM 60.8 °F 59.0 °F 94% 29.68 in 0.5 mi NNE 17.3 mph 25.3 mph 0.00 in Rain Light Rain
9:45 PM 57.2 °F 57.2 °F 100% 29.67 in 1.0 mi NE 15.0 mph - 0.00 in   Overcast
9:52 PM 57.9 °F 57.9 °F 100% 29.69 in 0.5 mi NE 10.4 mph - 0.00 in   Overcast
10:11 PM 59.0 °F 59.0 °F 100% 29.73 in 2.0 mi WNW 6.9 mph - N/A   Overcast
10:52 PM 60.1 °F 59.0 °F 96% 29.72 in 2.0 mi NNW 10.4 mph - 0.06 in Rain Light Rain
11:07 PM 60.8 °F 60.8 °F 100% 29.72 in 2.0 mi North 8.1 mph - 0.00 in Rain Light Rain
11:32 PM 60.8 °F 60.8 °F 100% 29.72 in 3.0 mi NNE 10.4 mph - 0.01 in Rain Light Rain
11:52 PM 60.1 °F 59.0 °F 96% 29.72 in 3.0 mi North 9.2 mph - 0.01 in   Overcast